Starlink 31053

operational
NORAD ID: 58549 Int'l Des: 2023-192 Owner: SPXS Country: US Constellation: starlink
LEOCIRCULAR

Starlink 31053について

説明を読み込み中...

リアルタイム位置

3D地球を読み込み中...

次回通過

高度履歴

Altitude vs Time

uPlot chart will show altitude changes over time

軌道要素

1 58549U 23192U 25258.00714031 .00000132 00000-0 16585-4 0 9991
2 58549 53.1594 159.0451 0001355 76.9814 283.1338 15.30194522 99080
Epoch: Sep 15, 2025 • Age: 34 hours

現在のステータス

高度 491.4 km
速度 7.62 km/s
衛星直下点 -45.14°S, 126.82°W
打ち上げ日 Dec 8, 2023
運用期間 1.7 years
タイプ internet

技術仕様

分類 Payload
質量 730.00 kg
乾燥質量 700.00 kg
総質量 730.00 kg
長さ 0.30 m
直径 4.10 m
スパン 29.00 m
形状 Box + pan
製造者 SPXS
バスタイプ Starlink V2M
フェーズステータス In Orbit
所有者/国 SPXS/US

大規模コンステレーション

Loading constellations...